Rochester, MN

3:10 AM CDT on June 22, 2018 (GMT -0500)
Rochester International

Weather History for KRST - December, 2017

Change the Weather History Date:

Friday, December 8, 2017

  Actual Average Record
Temperature  
Mean Temperature 24 °F 22 °F  
Max Temperature 31 °F 29 °F 58 °F (1946)
Min Temperature 16 °F 15 °F -18 °F (1947)
Degree Days  
Heating Degree Days 41 43  
Month to date heating degree days 284 332  
Since 1 July heating degree days 1862 2004  
Cooling Degree Days 0 0  
Month to date cooling degree days 0 0  
Year to date cooling degree days 494 585  
Moisture  
Dew Point 21 °F    
Average Humidity 81    
Maximum Humidity 92    
Minimum Humidity 69    
Precipitation  
Precipitation 0.01 in 0.05 in 0.51 in (1987)
Month to date precipitation 0.08 0.39  
Year to date precipitation 32.26 32.18  
Snow  
Snow 0.20 in 0.40 in 8.30 in (2009)
Month to date snowfall 0.7 3.3  
Since 1 July snowfall 4.0 10.2  
Snow Depth T in    
Sea Level Pressure  
Sea Level Pressure 29.84 in    
Wind  
Wind Speed 13 mph (West)    
Max Wind Speed 24 mph    
Max Gust Speed 30 mph    
Visibility 8 miles    
Events Snow    
T = Trace of Precipitation, MM = Missing Value Source: NWS Daily Summary

Daily Weather History Graph

Daily Weather History Graph

Search for Another Location

Airport or City:

Astronomy

Dec. 08, 2017 Rise Set
Actual Time 7:31 AM CST 4:32 PM CST
Civil Twilight 6:59 AM CST 5:04 PM CST
Nautical Twilight 6:22 AM CST 5:41 PM CST
Astronomical Twilight 5:47 AM CST 6:16 PM CST
Moon 10:33 PM CST (12/8) 11:48 AM CST (12/8)
Length of Visible Light 10h 05m
Length of Day
9h 00m
Waning Gibbous, 67% of the Moon is Illuminated
Dec 8
Waning Gibbous
Dec 10
Last Quarter
Dec 18
New
Dec 26
First Quarter
Jan 1
Full

Hourly Weather History & Observations

Time (CST) Temp. Windchill Dew Point Humidity Pressure Visibility Wind Dir Wind Speed Gust Speed Precip Events Conditions
12:54 AM 17.1 °F 5.0 °F 12.9 °F 84% 29.99 in 10.0 mi WSW 10.4 mph - N/A   Mostly Cloudy
1:54 AM 16.0 °F 2.3 °F 12.0 °F 84% 29.97 in 10.0 mi WSW 12.7 mph - N/A   Clear
2:54 AM 18.0 °F 5.4 °F 12.9 °F 81% 29.97 in 10.0 mi WSW 11.5 mph - N/A   Overcast
3:54 AM 19.9 °F 7.9 °F 15.1 °F 81% 29.96 in 10.0 mi WSW 11.5 mph - N/A   Overcast
4:54 AM 19.9 °F 8.6 °F 16.0 °F 85% 29.96 in 10.0 mi West 10.4 mph - N/A   Partly Cloudy
5:54 AM 18.0 °F 6.9 °F 14.0 °F 84% 29.97 in 10.0 mi West 9.2 mph - N/A   Clear
6:54 AM 16.0 °F 5.3 °F 12.9 °F 88% 29.99 in 10.0 mi West 8.1 mph - N/A   Clear
7:54 AM 17.1 °F 5.0 °F 14.0 °F 88% 29.99 in 10.0 mi West 10.4 mph - N/A   Clear
8:54 AM 21.0 °F 9.9 °F 18.0 °F 88% 29.97 in 10.0 mi West 10.4 mph - N/A   Clear
9:54 AM 25.0 °F 14.2 °F 19.9 °F 81% 29.97 in 10.0 mi NW 11.5 mph - N/A   Clear
10:54 AM 27.0 °F 18.0 °F 21.9 °F 81% 29.96 in 10.0 mi NW 9.2 mph - N/A   Clear
11:54 AM 30.0 °F 19.5 °F 23.0 °F 75% 29.94 in 10.0 mi West 13.8 mph - N/A   Clear
12:54 PM 30.0 °F 19.1 °F 21.9 °F 72% 29.91 in 10.0 mi West 15.0 mph - N/A   Clear
1:54 PM 30.0 °F 20.0 °F 21.9 °F 72% 29.87 in 10.0 mi West 12.7 mph - N/A   Clear
2:54 PM 28.9 °F 17.7 °F 21.9 °F 75% 29.85 in 10.0 mi West 15.0 mph - N/A   Overcast
3:54 PM 28.0 °F 17.0 °F 21.9 °F 78% 29.86 in 10.0 mi West 13.8 mph - N/A   Overcast
4:54 PM 27.0 °F 16.7 °F 21.0 °F 78% 29.85 in 10.0 mi West 11.5 mph - N/A   Overcast
5:54 PM 27.0 °F 15.6 °F 21.9 °F 81% 29.81 in 10.0 mi SW 13.8 mph - N/A   Overcast
6:54 PM 27.0 °F 15.2 °F 24.1 °F 89% 29.78 in 10.0 mi WSW 15.0 mph - N/A   Overcast
7:39 PM 28.0 °F 14.9 °F 24.1 °F 85% 29.71 in 6.0 mi West 19.6 mph - 0.00 in Snow Light Snow
7:54 PM 28.0 °F 14.3 °F 24.1 °F 85% 29.76 in 2.5 mi West 21.9 mph 27.6 mph 0.00 in Snow Light Snow
8:05 PM 28.0 °F 14.6 °F 25.0 °F 88% 29.69 in 1.8 mi WSW 20.7 mph - 0.01 in Snow Light Snow
8:16 PM 27.0 °F 13.5 °F 25.0 °F 92% 29.68 in 2.5 mi WSW 19.6 mph - 0.01 in Snow Light Snow
8:21 PM 27.0 °F 13.5 °F 25.0 °F 92% 29.69 in 1.5 mi West 19.6 mph - 0.01 in Snow Light Snow
8:28 PM 27.0 °F 14.3 °F 25.0 °F 92% 29.69 in 1.2 mi West 17.3 mph - 0.01 in Snow Light Snow
8:30 PM 27.0 °F 14.3 °F 25.0 °F 92% 29.69 in 2.0 mi West 17.3 mph - 0.01 in Snow Light Snow
8:37 PM 27.0 °F 13.9 °F 25.0 °F 92% 29.68 in 3.0 mi West 18.4 mph - 0.01 in   Overcast
9:02 PM 28.0 °F 14.6 °F 25.0 °F 88% 29.67 in 10.0 mi West 20.7 mph - 0.00 in   Overcast
9:54 PM 28.9 °F 16.5 °F 25.0 °F 85% 29.72 in 10.0 mi NW 18.4 mph - 0.00 in   Overcast
10:50 PM 28.4 °F 16.2 °F 24.8 °F 86% 29.69 in 10.0 mi NNW 17.3 mph - 0.00 in   Overcast
10:54 PM 28.9 °F 16.5 °F 24.1 °F 82% 29.74 in 10.0 mi NNW 18.4 mph - 0.00 in   Overcast
11:54 PM 28.0 °F 15.7 °F 21.0 °F 75% 29.76 in 10.0 mi NNW 17.3 mph - N/A   Overcast